Location: Asheville, NC
(35.6000°N, 82.5500°W)
Time: 20:01:16

N. Korean satellite - Pass Details

Date: 09 January 2018
Orbit: 460 x 512 km, 97.2° (Epoch: 23 March)

Event Time Altitude Azimuth Distance (km) Brightness Sun altitude
Rises 06:27:49 0° 28° (NNE) 2,503 10.3 -14.5°
Reaches altitude 10° 06:30:16 10° 45° (NE) 1,616 9.6 -14.0°
Maximum altitude 06:32:55 20° 95° (E) 1,111 9.4 -13.5°
Drops below altitude 10° 06:35:31 10° 145° (SE) 1,598 10.0 -13.0°
Sets 06:37:55 0° 163° (SSE) 2,465 10.7 -12.5°
